This is the latest recevied weather packets stored in our database for station/object N3SBK. If no packets are shown the sender has not sent any weather packets the latest 10 day(s).
| Time | Temp. | Humidity | Pressure | Rain* | Wind** | Luminosity | Snow |
|---|---|---|---|---|---|---|---|
| 1787550260 | 14.44° C | 89% | 1006.5 hPa | 3.56 mm | - | 0 W/m² | - |
| 1787549956 | 14.44° C | 91% | 1006.4 hPa | 0 mm | - | 0 W/m² | - |
| 1787549652 | 15° C | 93% | 1006.7 hPa | 0 mm | - | 0 W/m² | - |
| 1787549348 | 15° C | 93% | 1006.5 hPa | 0 mm | - | 0 W/m² | - |
| 1787549043 | 15° C | 93% | 1006.3 hPa | 0 mm | - | 0 W/m² | - |
| 1787548739 | 15.56° C | 92% | 1005.9 hPa | 0 mm | - | 0 W/m² | - |
| 1787548435 | 15.56° C | 91% | 1006.2 hPa | 0 mm | - | 0 W/m² | - |
| 1787548130 | 15.56° C | 89% | 1006 hPa | 1.27 mm | - | 0 W/m² | - |
| 1787547825 | 16.11° C | 87% | 1006 hPa | 1.27 mm | - | 0 W/m² | - |
| 1787547525 | 16.67° C | 83% | 1006.3 hPa | 0 mm | - | 0 W/m² | - |
| 1787547221 | 16.67° C | 81% | 1006.2 hPa | 0 mm | - | 0 W/m² | - |
| 1787546921 | 16.67° C | 81% | 1005.9 hPa | 0 mm | - | 0 W/m² | - |
| 1787546617 | 16.11° C | 83% | 1005.7 hPa | 0 mm | - | 0 W/m² | - |
| 1787546313 | 15.56° C | 83% | 1005.9 hPa | 0 mm | - | 0 W/m² | - |
| 1787546008 | 15.56° C | 86% | 1005.6 hPa | 0 mm | - | 0 W/m² | - |
| 1787545704 | 15.56° C | 87% | 1005.8 hPa | 0 mm | - | 0 W/m² | - |
| 1787545399 | 15.56° C | 85% | 1005.8 hPa | 0 mm | - | 0 W/m² | - |
| 1787545096 | 16.11° C | 85% | 1005.7 hPa | 0 mm | - | 0 W/m² | - |
| 1787544793 | 16.11° C | 85% | 1005.7 hPa | 0 mm | - | 0 W/m² | - |
| 1787544489 | 16.11° C | 84% | 1005.6 hPa | 0 mm | - | 0 W/m² | - |
| 1787544184 | 16.11° C | 83% | 1005.7 hPa | 0 mm | - | 0 W/m² | - |
| 1787543879 | 16.11° C | 84% | 1005.4 hPa | 0 mm | - | 0 W/m² | - |
| 1787543575 | 16.11° C | 84% | 1005.7 hPa | 0 mm | - | 0 W/m² | - |
| 1787543270 | 16.11° C | 83% | 1005.7 hPa | 0 mm | - | 0 W/m² | - |
| 1787542966 | 16.11° C | 85% | 1005.9 hPa | 0 mm | - | 0 W/m² | - |
* Rain latest hour (hover to see other rain measurements)
** Current wind speed in m/s (hover to see current wind gust speed)